Back to catalog

STARLINK-30450

AliveCommunicationsVLEO
NORAD 57913·PAYLOAD·🇺🇸 United States

Launched Sep 24, 2023 from Cape Canaveral Space Force Station

Loading…

Next Passes (next 24 hours)

TLE

FreshSource: CelesTrak SupGP

Epoch: Sep 15, 2026, 02:49 UTC

1 57913C 23147A   26258.11784722  .00041313  00000+0  14966-2 0  2584
2 57913  43.0028 335.1428 0001731 257.4814  38.9137 15.27551686    11

Track STARLINK-30450 in real time with AllMySat

Download on the App Store